Terminal Aerodrome Forecast
Issued by NWS Pittsburgh, PA

Current Version | Previous Version | Graphics & Text | Print | Product List | Glossary On
Versions: 1 2 3 4 5 6 7 8 9 10 11 12 13 14 15 16 17 18 19 20 21 22 23 24 25 26 27 28 29 30
000
FTUS41 KPBZ 212300
TAFPIT
TAF
KPIT 212327Z 2200/2306 27004KT P6SM SKC
     FM221200 19007KT P6SM BKN050
     FM221800 21011G17KT P6SM OVC030
     FM230000 22006KT P6SM OVC040=

USA.gov is the U.S. government's official web portal to all federal, state and local government web resources and services.